Eagle, CO

4:44 AM MDT on July 26, 2017 (GMT -0600)
Eagle County Regional

Weather History for KEGE - June, 2013

Change the Weather History Date:

Wednesday, June 26, 2013

  Actual Average Record
Temperature  
Mean Temperature 68 °F -  
Max Temperature 89 °F 82 °F 96 °F (1990)
Min Temperature 46 °F 43 °F 31 °F (1950)
Cooling Degree Days 2    
Growing Degree Days 18 (Base 50)    
Moisture  
Dew Point 33 °F    
Average Humidity 36    
Maximum Humidity 62    
Minimum Humidity 12    
Precipitation  
Precipitation 0.00 in - - ()
Sea Level Pressure  
Sea Level Pressure 30.23 in    
Wind  
Wind Speed 3 mph (SW)    
Max Wind Speed 16 mph    
Max Gust Speed 31 mph    
Visibility 10 miles    
Events      
Averages and records for this station are not official NWS values.
T = Trace of Precipitation, MM = Missing Value Source: NWS Daily Summary

Daily Weather History Graph

Daily Weather History Graph

Search for Another Location

Airport or City:

Trip Planner

Search our weather history database for the weather conditions in past years. The results will help you decide how hot, cold, wet, or windy it might be!

Date:

Astronomy

Jun. 26, 2013 Rise Set
Actual Time 5:41 AM MDT 8:39 PM MDT
Civil Twilight 5:09 AM MDT 9:11 PM MDT
Nautical Twilight 4:27 AM MDT 9:53 PM MDT
Astronomical Twilight 3:40 AM MDT 10:40 PM MDT
Moon 11:05 PM MDT 9:35 AM MDT
Length of Visible Light 16h 02m
Length of Day
14h 57m
Waning Gibbous, 85% of the Moon is Illuminated
Jun 26
Waning Gibbous
Jun 29
Last Quarter
Jul 8
New
Jul 15
First Quarter
Jul 22
Full

Hourly Weather History & Observations

Time (MDT) Temp. Dew Point Humidity Pressure Visibility Wind Dir Wind Speed Gust Speed Precip Events Conditions
12:15 AM 59.0 °F 33.8 °F 39% 30.18 in 10.0 mi Calm Calm - N/A   Clear
12:35 AM 59.0 °F 33.8 °F 39% 30.19 in 10.0 mi Calm Calm - N/A   Clear
12:55 AM 57.2 °F 33.8 °F 41% 30.19 in 10.0 mi Calm Calm - N/A   Clear
1:15 AM 55.4 °F 33.8 °F 44% 30.19 in 10.0 mi Calm Calm - N/A   Clear
1:35 AM 55.4 °F 33.8 °F 44% 30.19 in 10.0 mi Calm Calm - N/A   Clear
2:15 AM 53.6 °F 33.8 °F 47% 30.19 in 10.0 mi SE 3.5 mph - N/A   Clear
2:35 AM 53.6 °F 33.8 °F 47% 30.20 in 10.0 mi Calm Calm - N/A   Clear
2:55 AM 51.8 °F 33.8 °F 50% 30.21 in 10.0 mi Calm Calm - N/A   Clear
3:15 AM 51.8 °F 33.8 °F 50% 30.21 in 10.0 mi Calm Calm - N/A   Clear
3:35 AM 50.0 °F 33.8 °F 54% 30.21 in 10.0 mi ESE 3.5 mph - N/A   Clear
3:55 AM 50.0 °F 33.8 °F 54% 30.21 in 10.0 mi East 4.6 mph - N/A   Clear
4:15 AM 48.2 °F 33.8 °F 58% 30.22 in 10.0 mi ESE 3.5 mph - N/A   Clear
4:35 AM 48.2 °F 33.8 °F 58% 30.23 in 10.0 mi Calm Calm - N/A   Clear
4:55 AM 48.2 °F 33.8 °F 58% 30.23 in 10.0 mi Calm Calm - N/A   Clear
5:15 AM 48.2 °F 33.8 °F 58% 30.24 in 10.0 mi Calm Calm - N/A   Clear
5:35 AM 46.4 °F 33.8 °F 62% 30.25 in 10.0 mi Calm Calm - N/A   Clear
5:55 AM 46.4 °F 33.8 °F 62% 30.26 in 10.0 mi Calm Calm - N/A   Clear
6:15 AM 46.4 °F 33.8 °F 62% 30.26 in 10.0 mi Calm Calm - N/A   Clear
6:35 AM 46.4 °F 33.8 °F 62% 30.27 in 10.0 mi Calm Calm - N/A   Clear
6:50 AM 48.2 °F 35.6 °F 62% 30.27 in 10.0 mi Calm Calm - N/A   Clear
6:55 AM 48.2 °F 35.6 °F 62% 30.27 in 10.0 mi Calm Calm - N/A   Clear
7:50 AM 53.6 °F 35.6 °F 51% 30.29 in 10.0 mi Calm Calm - N/A   Clear
8:50 AM 60.8 °F 33.8 °F 36% 30.29 in 10.0 mi Calm Calm - N/A   Clear
10:50 AM 66.2 °F 35.6 °F 32% 30.28 in 10.0 mi Calm Calm - N/A   Partly Cloudy
11:50 AM 80.6 °F 35.6 °F 20% 30.25 in 10.0 mi Calm Calm - N/A   Partly Cloudy
12:50 PM 84.2 °F 32.0 °F 15% 30.23 in 10.0 mi SSW 8.1 mph - N/A   Partly Cloudy
1:50 PM 86.0 °F 30.2 °F 13% 30.22 in 10.0 mi WSW 15.0 mph 24.2 mph N/A   Partly Cloudy
2:55 PM 87.8 °F 33.8 °F 15% 30.20 in 10.0 mi WSW 12.7 mph 17.3 mph N/A   Partly Cloudy
3:50 PM 87.8 °F 35.6 °F 16% 30.18 in 10.0 mi WSW 8.1 mph 25.3 mph N/A   Partly Cloudy
4:50 PM 89.6 °F 35.6 °F 15% 30.18 in 10.0 mi West 16.1 mph 31.1 mph N/A   Partly Cloudy
5:50 PM 87.8 °F 33.8 °F 15% 30.18 in 10.0 mi West 11.5 mph 20.7 mph N/A   Partly Cloudy
6:50 PM 87.8 °F 32.0 °F 14% 30.18 in 10.0 mi West 13.8 mph 19.6 mph N/A   Partly Cloudy
7:15 PM 87.8 °F 30.2 °F 13% 30.19 in 10.0 mi West 11.5 mph 18.4 mph N/A   Clear
7:35 PM 87.8 °F 30.2 °F 13% 30.19 in 10.0 mi West 8.1 mph - N/A   Clear
7:55 PM 86.0 °F 28.4 °F 12% 30.19 in 10.0 mi West 8.1 mph - N/A   Clear
8:15 PM 84.2 °F 28.4 °F 13% 30.20 in 10.0 mi West 6.9 mph - N/A   Clear
8:35 PM 82.4 °F 28.4 °F 14% 30.21 in 10.0 mi SW 4.6 mph - N/A   Clear
8:55 PM 80.6 °F 28.4 °F 15% 30.22 in 10.0 mi SSW 5.8 mph - N/A   Clear
9:15 PM 77.0 °F 32.0 °F 19% 30.23 in 10.0 mi Calm Calm - N/A   Clear
9:35 PM 75.2 °F 30.2 °F 19% 30.24 in 10.0 mi NNE 5.8 mph - N/A   Clear
9:55 PM 71.6 °F 33.8 °F 25% 30.25 in 10.0 mi ENE 9.2 mph - N/A   Clear
10:15 PM 69.8 °F 33.8 °F 27% 30.26 in 10.0 mi ENE 4.6 mph - N/A   Clear
10:35 PM 69.8 °F 33.8 °F 27% 30.26 in 10.0 mi East 5.8 mph - N/A   Clear
10:55 PM 68.0 °F 33.8 °F 28% 30.27 in 10.0 mi East 5.8 mph - N/A   Clear
11:15 PM 66.2 °F 32.0 °F 28% 30.28 in 10.0 mi Calm Calm - N/A   Clear
11:35 PM 64.4 °F 33.8 °F 32% 30.28 in 10.0 mi Calm Calm - N/A   Clear
11:55 PM 62.6 °F 32.0 °F 32% 30.28 in 10.0 mi East 4.6 mph - N/A   Clear